Location: Beadle
(51.4667°N, 109.0000°W)
Time: 05:49:04
(UTC+00:00)

Altair - Pass Details

Date: 28 May 2022
Orbit: 1501 x 1682 km, 47.2° (Epoch: 30 June)

Event Time Altitude Azimuth Distance (km) Brightness Sun altitude
Rises 04:25:18 0° 283° (WNW) 4,924 11.1 -8.3°
Reaches altitude 10° 04:28:34 10° 279° (W) 3,943 10.4 -8.6°
Maximum altitude 04:38:09 49° 209° (SSW) 2,071 8.0 -9.5°
Enters shadow 04:47:07 12° 139° (SE) 3,752 8.9 -10.4°
Drops below altitude 10° 04:47:39 10° 138° (SE) 3,906 - -10.4°
Sets 04:50:53 0° 133° (SE) 4,874 - -10.7°
